Track COSMOS 2441 now! 10-day predictions COSMOS 2441 is classified as:
1 33272U 08037A 25199.55831838 .00000191 00000-0 57169-4 0 9995 2 33272 98.2856 144.3536 0014965 287.6920 72.2642 14.52983050899615